Flag for Bulgaria Weather past 2 weeks in Plovdiv, Bulgaria

Now
93 °F

Extremely hot.


Feels Like: 93 °F
Forecast: 68 / 97 °F
Wind: 7 mph from North

Location: Plovdiv Airport

Current Time: Aug 5, 2015 at 3:47:37 PM

Latest Report: Aug 5, 2015 at 3:00 PM


Visibility: N/A

Pressure: 29.92 "Hg

Humidity: 34%

Dew point: 61 °F

Location of PlovdivLocation

Historic Weather in Plovdiv — Graph

°F

Plovdiv temperature yesterday

Maximum temperature yesterday: 93 °F (at 4:00 PM)
Minimum temperature yesterday: 64 °F (at 5:00 AM)
Average temperature yesterday: 81 °F

Past Weeks' High & Low Weather Summary

 TemperatureHumidityPressure
High100 °F (Jul 30, 4:30 PM)94% (Jul 22, 6:30 AM)30.15 "Hg (Jul 22, 6:30 AM)
Low59 °F (Jul 24, 5:00 AM)16% (Jul 26, 4:30 PM)29.62 "Hg (Jul 27, 6:30 PM)
Average81 °F52%29.89 "Hg
* Reported Jul 21 3:00 PM — Aug 5 3:00 PM, Plovdiv, Weather by CustomWeather, © 2015

Note: Actual official high and low records may vary slightly from our data, if they occured in-between our weather recording intervals... More about our weather records

Advertising

Plovdiv weather history for previous 24 hours

 ConditionsComfort  
Time TempWeatherWind HumidityBarometerVisibility
3:00 PM
Wed, Aug 5
93 °FExtremely hot.7 mph34%29.92 "HgN/A
2:30 PM93 °FExtremely hot.9 mph34%29.92 "HgN/A
2:00 PM93 °FPassing clouds.9 mph32%29.95 "HgN/A
1:30 PM91 °FHot.8 mph32%29.95 "HgN/A
1:00 PM91 °FScattered clouds.6 mph32%29.95 "HgN/A
12:30 PM90 °FPartly sunny.9 mph33%29.95 "HgN/A
12:00 PM90 °FPassing clouds.7 mph33%29.95 "HgN/A
11:30 AM90 °FScattered clouds.12 mph36%29.95 "HgN/A
11:00 AM90 °FPartly sunny.14 mph38%29.95 "HgN/A
10:30 AM88 °FWarm.13 mph40%29.95 "HgN/A
10:00 AM86 °FWarm.10 mph40%29.95 "HgN/A
9:30 AM82 °FWarm.8 mph48%29.95 "HgN/A
9:00 AM79 °FWarm.2 mph51%29.95 "HgN/A
8:30 AM77 °FWarm.5 mph54%29.95 "HgN/A
8:00 AM73 °FMild.8 mph61%29.95 "HgN/A
7:30 AM72 °FPassing clouds.5 mph65%29.95 "HgN/A
7:00 AM68 °FMild.1 mph78%29.92 "HgN/A
6:30 AM66 °FMild.5 mph78%29.92 "HgN/A
6:00 AM68 °FMild.6 mph73%29.92 "HgN/A
5:30 AM70 °FMild.5 mph64%29.92 "HgN/A
5:00 AM70 °FMild.2 mph69%29.92 "HgN/A
4:30 AM72 °FMild.1 mph65%29.92 "HgN/A
4:00 AM72 °FMild.3 mph65%29.92 "HgN/A
3:30 AM72 °FMild.5 mph65%29.92 "HgN/A
3:00 AM73 °FMild.5 mph61%29.92 "HgN/A
2:30 AM75 °FMild.8 mph57%29.92 "HgN/A
2:00 AM77 °FWarm.9 mph54%29.92 "HgN/A
1:30 AM77 °FPassing clouds.9 mph54%29.92 "HgN/A
1:00 AM77 °FPassing clouds.7 mph54%29.95 "HgN/A
12:30 AM79 °FPassing clouds.8 mph51%29.95 "HgN/A
12:00 AM79 °FPassing clouds.8 mph51%29.92 "HgN/A
11:30 PM
Tue, Aug 4
81 °FPassing clouds.7 mph48%29.92 "HgN/A
11:00 PM82 °FPassing clouds.7 mph45%29.92 "HgN/A
10:30 PM82 °FPassing clouds.6 mph45%29.92 "HgN/A
10:00 PM82 °FWarm.6 mph45%29.92 "HgN/A
9:30 PM82 °FWarm.6 mph45%29.92 "HgN/A
9:00 PM86 °FPleasantly warm.5 mph38%29.89 "HgN/A
8:30 PM88 °FPassing clouds.8 mph35%29.89 "HgN/A
8:00 PM91 °FScattered clouds.6 mph32%29.89 "HgN/A
7:30 PM91 °FHot.5 mph30%29.86 "HgN/A
7:00 PM93 °FExtremely hot.5 mph26%29.86 "HgN/A
6:30 PM93 °FExtremely hot.2 mph26%29.86 "HgN/A
6:00 PM93 °FExtremely hot.6 mph28%29.89 "HgN/A
5:30 PM93 °FExtremely hot.7 mph26%29.89 "HgN/A
5:00 PM93 °FExtremely hot.8 mph28%29.89 "HgN/A
4:30 PM93 °FExtremely hot.6 mph28%29.89 "HgN/A
4:00 PM93 °FExtremely hot.7 mph28%29.92 "HgN/A
3:30 PM91 °FHot.6 mph30%29.92 "HgN/A
3:00 PM91 °FHot.3 mph30%29.92 "HgN/A
Weather by CustomWeather, © 2015

See weather overviewHow to use our weather pages